SCP
-0 0 -0 0 0 0 0 0 0 0 0 0 -0 -0 -0 -0 -0 -0 -0 -0 -0 -0 -0 -0 -0 -0 -0 -0 -0 -0 -0 -0 -0 -0 -0 -0 -0 -0 -0 -0 -0 -0 -0
-0 0 0 0 -0 0 0 0 -0 0 0 0 0 -0 -0 -0 -0 -0 -0 -0 -0 -0 -0 0 0 0 -0 -0 -0 -0 -0 -0 -0 -0 -0 -0 -0 -0 -0 -0 -0 -0 -0
0 0 0 0 0 0 0 0 0 0 -0 0 0 0 -0 -0 -0 -0 -0 -0 0 -0 -0 0 0 0 0 0 -0 -0 -0 -0 -0 -0 -0 -0 -0 -0 -0 -0 -0 -0 -0
-0 0 0 0 0 0 0 0 0 0 -0 0 0 0 0 -0 -0 0 0 -0 -0 -0 -0 -0 -0 0 0 -0 0 0 0 0 -0 -0 -0 -0 0 -0 -0 -0 -0 -0 -0
0 0 0 0 0 0 0 0 0 0 0 0 0 0 0 -0 -0 0 0 -0 -0 -0 -0 0 0 0 0 0 0 -0 -0 -0 0 -0 0 0 0 -0 -0 -0 -0 -0 -0
-0 0 0 0 0 0 0 0 0 0 0 0 0 0 0 -0 0 -0 -0 -0 -0 -0 0 0 0 0 0 0 0 0 0 0 0 0 0 0 0 -0 -0 -0 -0 -0 -0
0 0 0 0 0 0 0 0 0 0 0 0 0 0 -0 -0 0 -0 0 0 0 0 0 0 0 0 0 0 0 0 0 0 0 0 0 0 -0 -0 -0 -0 -0 0 -0
-0 0 0 0 0 0 0 0 0 0 0 0 0 0 0 0 0 0 0 0 0 0 0 0 0 0 0 0 0 0 -0 -0 0 0 0 0 0 0 -0 0 0 0 0
0 0 0 0 0 0 0 0 0 0 0 0 0 0 0 0 0 0 0 0 0 0 0 0 0 0 0 0 0 -0 -0 -0 0 0 0 0 -0 0 0 0 0 0 -0
0 0 0 0 0 0 0 0 0 0 0 0 0 0 0 0 0 0 0 0 0 0 0 -0 -0 -0 -0 -0 -0 -0 -0 -0 0 0 0 0 -0 -0 0 0 -0 -0 -0
0 0 0 0 0 0 0 0 0 0 0 0 0 0 0 0 0 0 0 0 -0 -0 -0 -0 -0 -0 -0 -0 -0 -0 -0 0 0 0 0 0 -0 -0 0 -0 -0 -0 -0
-0 0 0 0 0 0 0 0 0 0 0 0 0 0 0 0 0 0 0 -0 -0 -0 -1 -1 -0 -0 -0 0 -0 0 0 0 0 0 0 0 0 -0 -0 -0 -0 -0 -0
-0 -0 0 0 0 0 0 0 0 0 0 0 0 0 0 0 0 0 0 0 0 -0 -0 -0 -0 0 0 -0 -0 -0 0 0 -0 -0 0 0 0 -0 -0 0 0 0 0
-0 -0 0 0 0 0 0 0 0 0 0 0 0 0 0 0 0 0 0 0 -0 -0 -0 0 -0 -0 -0 -0 -0 0 0 -0 -0 0 0 -0 0 -0 0 0 0 0 0
0 -0 0 0 0 0 0 0 0 0 0 0 0 0 0 0 0 0 0 0 -0 -0 -0 -0 -0 -0 -0 -0 0 0 0 0 -0 -0 0 -0 0 0 0 0 0 0 0
-0 -0 0 0 0 0 0 0 0 0 0 0 0 0 0 0 0 0 0 0 -0 -0 -0 -0 -0 -0 0 0 0 0 0 0 0 -0 0 0 0 0 0 0 0 0 0
-0 -0 0 0 0 0 0 0 0 0 0 0 0 0 0 0 0 0 0 0 -0 0 -0 -0 -0 0 0 0 0 0 0 0 0 0 0 0 0 0 0 0 0 0 0
-0 -0 0 0 0 0 0 0 0 0 0 0 0 0 -0 0 0 0 0 -0 -0 -0 0 -0 -0 0 0 0 0 0 0 0 0 0 0 -0 0 0 0 0 0 0 0
-0 0 0 0 0 0 0 0 0 0 0 0 0 0 0 -0 0 0 0 0 -0 -0 0 -0 -0 0 0 0 0 0 0 0 0 0 0 0 0 0 0 0 0 0 0
-0 -0 -0 -0 0 -0 -0 0 0 0 0 0 0 0 0 0 0 0 0 0 0 -0 0 0 0 0 0 0 0 0 0 0 0 0 0 0 0 0 0 0 0 0 0
-0 -0 -0 -0 -0 -0 -0 0 0 0 0 0 0 0 0 0 -0 0 0 0 -0 0 0 -0 0 0 0 0 0 0 0 0 0 0 0 0 0 0 0 0 0 0 0
-0 -0 -0 -0 -0 -0 0 0 0 0 0 0 0 0 0 0 0 0 0 -0 -0 0 0 0 -0 -0 0 0 0 0 0 0 0 0 0 0 0 0 0 0 -0 0 0
-0 -0 -0 -0 0 -0 -0 0 0 0 0 0 0 0 0 0 0 0 0 0 -0 0 0 0 0 -0 -0 -0 0 0 0 0 0 0 0 0 0 0 0 -0 -0 -0 0
-0 0 0 -0 0 -0 0 0 -0 0 0 0 0 0 0 0 0 0 -0 0 0 0 0 0 -0 0 -0 -0 0 -0 0 0 0 0 0 0 0 0 -0 -0 -0 -0 0
0 0 0 0 0 0 0 0 0 0 0 0 0 0 0 0 0 0 0 0 0 0 0 -0 -0 -0 -0 -0 -0 -0 0 0 0 0 0 0 0 0 0 0 0 0 0
0 0 0 0 0 0 0 0 0 -0 -0 0 0 0 0 0 0 0 0 0 0 0 0 -0 -0 -0 -0 0 -0 -0 -0 -0 0 0 0 0 0 0 0 0 -0 -0 0
Wind_Speed_500mb
30 28 22 26 26 29 28 24 19 19 20 22 25 26 24 20 18 19 19 19 20 19 19 21 19 18 17 16 19 20 20 18 18 19 18 18 20 18 17 17 18 19 22
33 32 28 28 28 28 32 21 17 19 18 23 24 22 23 23 24 22 20 20 22 24 22 22 23 22 22 22 22 22 23 24 23 22 20 15 15 15 13 14 15 18 19
32 30 25 25 28 27 31 30 23 21 19 28 29 24 25 28 26 22 22 21 21 20 19 20 20 21 22 24 25 24 24 25 25 21 15 11 11 10 8 9 14 16 18
31 29 27 25 24 27 29 29 25 21 20 30 33 26 24 24 24 25 26 23 22 23 21 19 18 19 22 23 24 25 22 20 19 18 14 9 4 4 2 6 10 13 15
30 28 31 28 23 25 28 29 24 22 25 30 29 24 23 24 26 25 23 21 20 21 20 17 18 19 25 22 20 20 18 16 13 10 10 9 5 1 3 6 9 12 13
34 31 31 27 25 28 28 25 25 24 28 28 25 26 25 24 23 22 22 21 19 18 18 19 18 23 25 22 21 18 11 8 9 10 9 7 5 3 3 6 8 9 10
31 35 30 30 27 27 27 28 26 26 25 24 26 28 23 21 21 20 22 22 22 21 20 19 18 23 23 19 17 13 9 9 10 14 11 7 5 2 2 4 3 6 9
28 36 34 31 30 25 26 28 27 25 22 22 22 21 20 22 18 20 23 23 23 22 21 19 17 17 21 18 15 11 5 5 8 13 12 9 6 4 3 1 3 6 9
29 37 38 36 33 31 28 27 26 23 20 18 20 19 20 17 18 21 22 22 20 19 19 19 19 20 20 19 20 10 1 7 7 9 12 7 4 6 4 5 7 10 12
29 32 39 34 39 34 29 28 23 18 20 17 21 20 17 18 18 19 20 17 15 16 17 16 16 20 21 22 19 14 10 6 11 15 10 8 5 6 6 5 7 10 13
32 32 31 35 35 33 32 29 22 18 17 21 22 18 20 19 18 17 17 13 14 16 16 17 13 15 14 12 8 10 12 14 13 13 17 18 4 9 9 7 12 13 13
34 32 31 29 33 37 35 33 18 17 17 18 20 20 20 20 17 16 13 12 12 14 14 12 9 6 8 9 14 18 19 22 21 27 23 14 9 9 9 10 11 13 13
31 34 31 30 32 41 40 32 19 23 20 18 17 17 15 17 16 13 13 14 10 9 9 4 6 15 18 23 24 21 25 18 15 16 19 13 7 5 6 11 14 12 13
29 33 35 35 35 42 41 28 23 20 13 15 15 15 14 13 16 18 16 10 4 3 2 6 6 9 17 25 21 18 23 36 16 8 14 5 3 5 7 12 20 16 11
32 34 37 39 41 44 42 33 23 19 19 16 12 13 8 13 18 16 7 2 2 6 4 2 6 13 16 30 26 23 19 25 37 17 5 2 4 9 11 12 28 28 18
33 35 39 37 35 34 33 24 27 26 17 10 4 8 6 6 6 5 5 4 5 5 7 4 11 14 15 16 22 19 9 31 15 39 3 3 5 8 8 11 26 30 23
40 35 39 40 36 30 27 22 27 21 14 5 2 6 5 3 7 9 10 12 7 8 7 4 13 20 15 5 24 14 8 32 18 4 8 8 6 6 8 14 22 28 23
38 37 32 31 28 27 23 20 22 26 18 10 6 8 12 10 2 14 11 16 10 7 5 8 11 17 8 7 18 13 12 7 4 11 11 10 10 5 8 11 19 27 27
39 38 37 33 28 26 27 19 17 15 17 10 5 10 9 6 8 10 12 22 4 4 4 3 12 12 12 6 4 3 8 9 8 9 5 7 9 8 6 12 17 24 29
42 36 38 36 25 29 24 19 13 18 14 14 10 4 3 7 7 11 11 16 15 13 7 2 4 7 14 14 10 8 7 4 6 8 6 7 6 5 6 12 15 22 29
48 39 36 40 31 35 33 21 15 20 11 11 7 6 3 9 3 8 10 10 10 15 14 3 2 6 7 13 4 1 6 4 2 5 6 5 4 6 10 9 12 21 25
52 47 42 35 31 30 26 20 25 19 17 16 12 10 6 9 4 7 11 14 9 9 10 7 5 3 6 6 7 2 6 5 3 9 6 2 0 3 2 4 9 15 18
59 54 48 40 33 29 25 29 31 28 17 18 13 15 11 7 5 7 5 14 13 7 5 2 6 4 4 8 14 11 7 5 9 7 7 3 3 6 2 5 9 1 13
62 55 50 45 39 32 30 31 29 28 22 19 16 13 9 9 6 6 5 7 15 6 4 1 6 2 5 10 13 18 14 12 8 12 15 1 11 4 4 11 13 6 7
64 60 51 40 47 41 35 32 30 26 26 20 17 17 11 14 13 9 7 5 8 4 7 7 3 2 6 8 8 9 10 13 12 11 16 9 8 6 7 3 15 8 8
70 62 57 44 47 49 39 34 38 32 29 26 24 23 19 13 14 16 12 10 9 10 13 12 7 5 7 6 6 9 11 14 10 10 10 17 6 7 5 10 8 6 4
Wind_Direction_500mb
178 186 181 178 174 177 154 144 139 145 143 149 153 156 161 160 153 137 130 119 119 118 113 123 130 126 123 126 120 126 126 124 117 115 116 119 121 118 127 129 133 139 145
169 176 176 172 172 169 171 161 149 142 135 147 136 147 156 151 141 136 119 118 115 113 106 106 108 114 116 114 110 107 108 103 100 99 96 96 121 126 126 138 137 148 153
171 168 162 168 172 166 163 167 160 130 119 140 138 134 131 137 132 125 119 116 117 113 113 109 112 113 106 106 107 105 100 95 94 93 92 97 129 135 131 122 144 153 163
170 166 159 160 167 166 166 163 153 135 132 143 141 122 125 132 131 125 117 115 117 121 116 114 115 116 118 106 107 114 108 108 93 80 73 82 120 162 165 136 155 162 166
165 167 161 158 158 162 160 161 163 145 132 143 148 134 126 131 129 120 121 117 112 116 124 132 133 127 121 112 120 132 117 117 104 81 68 64 86 153 185 170 166 170 178
172 177 170 167 164 166 152 137 137 135 135 136 139 137 136 129 126 118 115 109 107 117 130 137 131 131 136 122 118 123 113 102 80 57 50 42 70 130 180 170 163 179 189
185 189 183 181 176 172 158 144 140 129 129 133 132 135 128 127 122 116 103 102 105 110 112 111 128 157 151 134 122 126 125 115 80 53 50 47 46 81 184 173 174 211 226
203 188 187 184 182 176 165 150 143 135 138 134 134 132 130 120 118 105 104 100 99 96 96 107 131 148 164 150 149 142 112 27 61 36 25 28 25 9 4 315 243 237 236
178 178 183 181 175 164 171 155 150 144 130 138 141 131 124 124 118 111 102 101 98 98 103 116 128 142 154 161 160 176 242 325 355 11 8 343 46 329 306 292 272 257 250
164 168 180 178 172 166 157 148 144 144 142 140 143 141 134 130 128 120 115 109 105 98 98 109 110 133 147 155 166 181 220 293 320 316 327 327 40 293 273 292 288 279 269
167 163 172 174 170 163 152 148 137 144 141 146 154 141 136 136 134 131 124 119 108 102 104 113 102 127 154 166 214 259 291 321 324 339 321 310 290 290 307 315 317 301 288
155 163 164 165 169 162 158 152 128 129 138 135 128 123 133 138 142 141 136 118 106 101 97 98 92 61 340 303 285 296 290 289 295 314 313 312 305 303 310 328 333 324 300
149 164 156 157 162 164 161 156 144 138 130 127 128 131 141 153 150 148 131 118 114 95 84 76 36 334 300 284 268 290 295 287 270 293 319 286 327 330 336 7 353 341 326
150 151 156 160 161 162 163 169 163 141 156 150 139 130 137 157 153 137 124 111 82 52 152 74 22 4 13 11 343 342 314 312 261 253 314 312 79 79 54 31 24 15 358
156 154 155 153 153 154 164 171 163 160 148 134 118 123 120 156 151 137 122 55 145 302 313 348 27 11 1 345 329 321 302 291 271 262 126 107 121 90 71 33 29 27 24
161 155 157 156 155 156 162 170 172 160 150 144 187 176 133 185 234 208 186 224 223 302 347 121 4 8 315 286 303 300 221 341 264 260 192 178 101 58 55 34 30 25 34
157 160 154 152 150 154 155 163 175 180 173 168 149 209 218 200 262 231 249 204 210 293 328 293 7 355 2 257 268 349 304 319 329 76 123 122 120 37 31 35 29 21 38
164 161 172 176 173 181 175 176 174 194 175 157 171 128 159 171 344 242 218 205 218 285 271 345 10 354 340 28 346 30 344 139 267 151 148 140 160 124 60 48 28 22 34
176 177 176 174 179 175 159 165 163 185 182 202 162 118 187 186 210 243 226 177 211 232 184 47 18 9 13 3 16 359 53 27 134 114 86 158 155 104 61 69 43 29 31
179 179 189 187 193 189 188 191 199 201 204 194 159 125 255 214 289 205 187 190 208 206 193 264 322 346 11 47 30 232 299 3 87 134 90 63 62 40 51 74 54 51 36
185 171 167 187 197 198 202 207 213 195 190 188 224 260 268 222 232 192 201 211 205 203 186 188 5 265 35 40 341 319 206 149 70 69 70 128 153 91 65 90 67 52 43
187 186 178 179 186 187 198 236 204 208 217 221 240 201 232 184 111 147 230 194 147 149 174 241 285 226 353 358 349 275 259 274 52 28 40 55 71 24 72 91 40 48 41
194 193 193 193 189 187 198 199 211 213 215 205 204 223 250 200 141 100 149 177 123 143 142 168 261 68 19 10 15 354 315 320 303 333 336 262 290 281 222 48 3 22 45
202 198 199 201 203 192 193 212 215 219 217 216 217 241 225 222 206 120 72 162 207 192 132 216 215 27 7 6 357 2 354 330 330 336 351 243 322 292 254 341 22 162 71
207 204 204 213 208 204 209 214 215 221 214 229 231 227 214 206 214 199 149 150 168 230 267 271 252 287 347 346 4 5 7 20 21 355 357 22 54 0 223 46 11 83 128
210 209 208 212 216 212 215 216 218 225 218 225 215 224 227 224 215 221 214 207 214 239 256 275 294 278 291 304 268 314 347 4 338 346 349 353 0 30 20 300 302 250 203
Wind_Speed_850mb
30 28 22 26 26 29 28 24 19 19 20 22 25 26 24 20 18 19 19 19 20 19 19 21 19 18 17 16 19 20 20 18 18 19 18 18 20 18 17 17 18 19 22
33 32 28 28 28 28 32 21 17 19 18 23 24 22 23 23 24 22 20 20 22 24 22 22 23 22 22 22 22 22 23 24 23 22 20 15 15 15 13 14 15 18 19
32 30 25 25 28 27 31 30 23 21 19 28 29 24 25 28 26 22 22 21 21 20 19 20 20 21 22 24 25 24 24 25 25 21 15 11 11 10 8 9 14 16 18
31 29 27 25 24 27 29 29 25 21 20 30 33 26 24 24 24 25 26 23 22 23 21 19 18 19 22 23 24 25 22 20 19 18 14 9 4 4 2 6 10 13 15
30 28 31 28 23 25 28 29 24 22 25 30 29 24 23 24 26 25 23 21 20 21 20 17 18 19 25 22 20 20 18 16 13 10 10 9 5 1 3 6 9 12 13
34 31 31 27 25 28 28 25 25 24 28 28 25 26 25 24 23 22 22 21 19 18 18 19 18 23 25 22 21 18 11 8 9 10 9 7 5 3 3 6 8 9 10
31 35 30 30 27 27 27 28 26 26 25 24 26 28 23 21 21 20 22 22 22 21 20 19 18 23 23 19 17 13 9 9 10 14 11 7 5 2 2 4 3 6 9
28 36 34 31 30 25 26 28 27 25 22 22 22 21 20 22 18 20 23 23 23 22 21 19 17 17 21 18 15 11 5 5 8 13 12 9 6 4 3 1 3 6 9
29 37 38 36 33 31 28 27 26 23 20 18 20 19 20 17 18 21 22 22 20 19 19 19 19 20 20 19 20 10 1 7 7 9 12 7 4 6 4 5 7 10 12
29 32 39 34 39 34 29 28 23 18 20 17 21 20 17 18 18 19 20 17 15 16 17 16 16 20 21 22 19 14 10 6 11 15 10 8 5 6 6 5 7 10 13
32 32 31 35 35 33 32 29 22 18 17 21 22 18 20 19 18 17 17 13 14 16 16 17 13 15 14 12 8 10 12 14 13 13 17 18 4 9 9 7 12 13 13
34 32 31 29 33 37 35 33 18 17 17 18 20 20 20 20 17 16 13 12 12 14 14 12 9 6 8 9 14 18 19 22 21 27 23 14 9 9 9 10 11 13 13
31 34 31 30 32 41 40 32 19 23 20 18 17 17 15 17 16 13 13 14 10 9 9 4 6 15 18 23 24 21 25 18 15 16 19 13 7 5 6 11 14 12 13
29 33 35 35 35 42 41 28 23 20 13 15 15 15 14 13 16 18 16 10 4 3 2 6 6 9 17 25 21 18 23 36 16 8 14 5 3 5 7 12 20 16 11
32 34 37 39 41 44 42 33 23 19 19 16 12 13 8 13 18 16 7 2 2 6 4 2 6 13 16 30 26 23 19 25 37 17 5 2 4 9 11 12 28 28 18
33 35 39 37 35 34 33 24 27 26 17 10 4 8 6 6 6 5 5 4 5 5 7 4 11 14 15 16 22 19 9 31 15 39 3 3 5 8 8 11 26 30 23
40 35 39 40 36 30 27 22 27 21 14 5 2 6 5 3 7 9 10 12 7 8 7 4 13 20 15 5 24 14 8 32 18 4 8 8 6 6 8 14 22 28 23
38 37 32 31 28 27 23 20 22 26 18 10 6 8 12 10 2 14 11 16 10 7 5 8 11 17 8 7 18 13 12 7 4 11 11 10 10 5 8 11 19 27 27
39 38 37 33 28 26 27 19 17 15 17 10 5 10 9 6 8 10 12 22 4 4 4 3 12 12 12 6 4 3 8 9 8 9 5 7 9 8 6 12 17 24 29
42 36 38 36 25 29 24 19 13 18 14 14 10 4 3 7 7 11 11 16 15 13 7 2 4 7 14 14 10 8 7 4 6 8 6 7 6 5 6 12 15 22 29
48 39 36 40 31 35 33 21 15 20 11 11 7 6 3 9 3 8 10 10 10 15 14 3 2 6 7 13 4 1 6 4 2 5 6 5 4 6 10 9 12 21 25
52 47 42 35 31 30 26 20 25 19 17 16 12 10 6 9 4 7 11 14 9 9 10 7 5 3 6 6 7 2 6 5 3 9 6 2 0 3 2 4 9 15 18
59 54 48 40 33 29 25 29 31 28 17 18 13 15 11 7 5 7 5 14 13 7 5 2 6 4 4 8 14 11 7 5 9 7 7 3 3 6 2 5 9 1 13
62 55 50 45 39 32 30 31 29 28 22 19 16 13 9 9 6 6 5 7 15 6 4 1 6 2 5 10 13 18 14 12 8 12 15 1 11 4 4 11 13 6 7
64 60 51 40 47 41 35 32 30 26 26 20 17 17 11 14 13 9 7 5 8 4 7 7 3 2 6 8 8 9 10 13 12 11 16 9 8 6 7 3 15 8 8
70 62 57 44 47 49 39 34 38 32 29 26 24 23 19 13 14 16 12 10 9 10 13 12 7 5 7 6 6 9 11 14 10 10 10 17 6 7 5 10 8 6 4
Wind_Direction_850mb
178 186 181 178 174 177 154 144 139 145 143 149 153 156 161 160 153 137 130 119 119 118 113 123 130 126 123 126 120 126 126 124 117 115 116 119 121 118 127 129 133 139 145
169 176 176 172 172 169 171 161 149 142 135 147 136 147 156 151 141 136 119 118 115 113 106 106 108 114 116 114 110 107 108 103 100 99 96 96 121 126 126 138 137 148 153
171 168 162 168 172 166 163 167 160 130 119 140 138 134 131 137 132 125 119 116 117 113 113 109 112 113 106 106 107 105 100 95 94 93 92 97 129 135 131 122 144 153 163
170 166 159 160 167 166 166 163 153 135 132 143 141 122 125 132 131 125 117 115 117 121 116 114 115 116 118 106 107 114 108 108 93 80 73 82 120 162 165 136 155 162 166
165 167 161 158 158 162 160 161 163 145 132 143 148 134 126 131 129 120 121 117 112 116 124 132 133 127 121 112 120 132 117 117 104 81 68 64 86 153 185 170 166 170 178
172 177 170 167 164 166 152 137 137 135 135 136 139 137 136 129 126 118 115 109 107 117 130 137 131 131 136 122 118 123 113 102 80 57 50 42 70 130 180 170 163 179 189
185 189 183 181 176 172 158 144 140 129 129 133 132 135 128 127 122 116 103 102 105 110 112 111 128 157 151 134 122 126 125 115 80 53 50 47 46 81 184 173 174 211 226
203 188 187 184 182 176 165 150 143 135 138 134 134 132 130 120 118 105 104 100 99 96 96 107 131 148 164 150 149 142 112 27 61 36 25 28 25 9 4 315 243 237 236
178 178 183 181 175 164 171 155 150 144 130 138 141 131 124 124 118 111 102 101 98 98 103 116 128 142 154 161 160 176 242 325 355 11 8 343 46 329 306 292 272 257 250
164 168 180 178 172 166 157 148 144 144 142 140 143 141 134 130 128 120 115 109 105 98 98 109 110 133 147 155 166 181 220 293 320 316 327 327 40 293 273 292 288 279 269
167 163 172 174 170 163 152 148 137 144 141 146 154 141 136 136 134 131 124 119 108 102 104 113 102 127 154 166 214 259 291 321 324 339 321 310 290 290 307 315 317 301 288
155 163 164 165 169 162 158 152 128 129 138 135 128 123 133 138 142 141 136 118 106 101 97 98 92 61 340 303 285 296 290 289 295 314 313 312 305 303 310 328 333 324 300
149 164 156 157 162 164 161 156 144 138 130 127 128 131 141 153 150 148 131 118 114 95 84 76 36 334 300 284 268 290 295 287 270 293 319 286 327 330 336 7 353 341 326
150 151 156 160 161 162 163 169 163 141 156 150 139 130 137 157 153 137 124 111 82 52 152 74 22 4 13 11 343 342 314 312 261 253 314 312 79 79 54 31 24 15 358
156 154 155 153 153 154 164 171 163 160 148 134 118 123 120 156 151 137 122 55 145 302 313 348 27 11 1 345 329 321 302 291 271 262 126 107 121 90 71 33 29 27 24
161 155 157 156 155 156 162 170 172 160 150 144 187 176 133 185 234 208 186 224 223 302 347 121 4 8 315 286 303 300 221 341 264 260 192 178 101 58 55 34 30 25 34
157 160 154 152 150 154 155 163 175 180 173 168 149 209 218 200 262 231 249 204 210 293 328 293 7 355 2 257 268 349 304 319 329 76 123 122 120 37 31 35 29 21 38
164 161 172 176 173 181 175 176 174 194 175 157 171 128 159 171 344 242 218 205 218 285 271 345 10 354 340 28 346 30 344 139 267 151 148 140 160 124 60 48 28 22 34
176 177 176 174 179 175 159 165 163 185 182 202 162 118 187 186 210 243 226 177 211 232 184 47 18 9 13 3 16 359 53 27 134 114 86 158 155 104 61 69 43 29 31
179 179 189 187 193 189 188 191 199 201 204 194 159 125 255 214 289 205 187 190 208 206 193 264 322 346 11 47 30 232 299 3 87 134 90 63 62 40 51 74 54 51 36
185 171 167 187 197 198 202 207 213 195 190 188 224 260 268 222 232 192 201 211 205 203 186 188 5 265 35 40 341 319 206 149 70 69 70 128 153 91 65 90 67 52 43
187 186 178 179 186 187 198 236 204 208 217 221 240 201 232 184 111 147 230 194 147 149 174 241 285 226 353 358 349 275 259 274 52 28 40 55 71 24 72 91 40 48 41
194 193 193 193 189 187 198 199 211 213 215 205 204 223 250 200 141 100 149 177 123 143 142 168 261 68 19 10 15 354 315 320 303 333 336 262 290 281 222 48 3 22 45
202 198 199 201 203 192 193 212 215 219 217 216 217 241 225 222 206 120 72 162 207 192 132 216 215 27 7 6 357 2 354 330 330 336 351 243 322 292 254 341 22 162 71
207 204 204 213 208 204 209 214 215 221 214 229 231 227 214 206 214 199 149 150 168 230 267 271 252 287 347 346 4 5 7 20 21 355 357 22 54 0 223 46 11 83 128
210 209 208 212 216 212 215 216 218 225 218 225 215 224 227 224 215 221 214 207 214 239 256 275 294 278 291 304 268 314 347 4 338 346 349 353 0 30 20 300 302 250 203